Theta_e
311 310 311 311 308 308 307 309 310 308 309 311 310 309 311 311 311 311 314 316 316 317 317 318 317 315 314 313 313 313 312 312 311 311 311 312 312 312 320 326 326 326 326 326
309 310 309 309 308 310 310 311 310 308 308 309 309 309 309 310 311 312 313 314 316 317 317 318 317 316 315 314 314 313 312 312 311 311 311 311 312 313 314 325 324 324 327 326
309 310 309 310 309 310 309 310 310 311 309 308 308 309 308 308 309 312 313 314 314 315 316 317 317 317 316 315 314 314 313 312 311 310 310 311 313 314 322 320 324 324 326 326
309 310 310 310 310 310 311 308 309 311 312 311 309 313 311 310 310 309 314 315 316 316 316 315 316 315 315 315 314 313 312 311 310 310 310 311 312 312 316 318 323 321 321 320
311 310 310 311 310 309 311 308 309 310 310 310 310 312 310 309 311 312 313 314 314 315 315 315 315 315 314 313 312 312 311 310 310 309 309 311 312 313 316 317 320 322 323 322
309 309 309 310 309 309 307 309 308 306 308 313 310 312 310 311 311 311 312 314 313 314 315 316 316 316 315 313 311 310 310 310 310 309 309 311 311 313 316 318 321 322 324 322
310 310 309 310 310 309 310 311 312 311 311 315 308 310 313 311 309 309 312 313 312 314 314 315 315 316 316 314 312 310 308 308 308 308 309 311 311 312 315 316 319 321 320 321
313 313 309 308 311 311 309 310 312 311 312 312 309 313 314 309 310 312 310 311 311 314 315 315 315 315 314 314 312 310 308 307 307 308 309 310 310 315 317 317 318 318 320 320
311 312 308 307 309 311 309 312 310 312 296 308 311 310 310 308 308 309 310 311 314 315 315 315 314 314 314 313 312 310 308 307 307 307 309 311 311 315 315 316 316 318 319 318
312 314 308 308 309 309 310 308 313 309 312 311 313 312 314 314 311 310 309 311 314 314 315 315 314 315 314 313 312 310 308 308 307 307 309 310 312 313 315 315 315 318 318 317
310 312 310 308 308 310 309 310 310 310 309 312 311 317 308 311 310 310 309 313 312 314 314 314 316 316 315 314 313 311 310 309 307 307 309 310 312 313 314 314 315 315 316 315
310 313 316 309 307 306 308 310 309 313 311 308 310 318 308 309 309 309 310 312 313 314 314 314 315 314 313 314 315 313 310 309 308 308 308 309 311 313 313 314 315 314 315 313
311 314 317 316 313 309 310 309 312 310 309 311 314 318 305 306 308 309 310 311 312 313 313 314 314 314 313 314 314 314 312 310 308 307 308 309 311 312 314 314 315 314 313 310
313 312 316 319 317 311 311 308 309 313 315 314 315 317 313 310 309 309 310 311 311 312 312 313 313 314 314 315 315 313 313 310 308 307 308 308 311 312 313 312 313 313 311 309
313 312 312 314 310 310 311 310 310 312 313 316 317 314 315 313 309 310 312 312 313 313 313 315 315 315 315 314 314 314 313 311 308 307 307 308 309 312 312 311 311 312 310 308
311 312 310 313 313 311 313 311 309 310 312 312 314 314 315 314 314 311 314 315 314 314 315 315 315 314 314 314 314 314 313 311 309 307 306 307 308 309 311 310 309 310 309 305
311 309 312 314 311 313 315 314 314 310 310 311 313 313 313 310 309 311 313 313 313 314 314 314 313 313 313 313 313 312 312 310 308 306 305 305 307 308 310 309 308 308 307 305
312 311 311 315 312 316 313 310 312 314 313 310 311 312 311 310 312 313 313 312 313 313 313 313 313 313 312 311 311 311 310 309 306 305 304 303 304 306 307 308 306 305 305 304
311 311 313 315 315 314 313 308 309 312 314 312 310 310 311 312 311 311 312 313 313 312 312 311 310 310 310 310 310 311 309 308 305 304 302 301 302 302 304 305 305 303 302 299
308 311 312 314 315 315 308 303 305 309 316 310 311 312 311 311 309 313 311 312 312 310 310 309 308 309 309 309 308 308 307 305 304 303 301 299 299 300 301 302 303 300 298 295
306 309 312 313 314 313 307 301 307 315 312 303 311 311 311 308 310 310 309 310 309 308 307 308 308 308 307 307 306 305 303 302 300 299 298 297 297 297 297 298 298 296 295 293
305 308 310 310 312 312 301 302 308 304 304 305 308 308 309 308 308 309 309 309 306 306 307 307 306 306 305 305 303 302 301 299 298 297 296 295 295 295 295 295 295 295 294 292
306 305 303 307 308 302 304 304 305 305 302 301 300 306 306 306 305 304 304 304 305 306 306 305 304 304 303 303 302 301 300 299 298 296 295 294 293 293 293 293 293 291 291 290
298 299 302 303 302 303 303 302 302 306 308 306 303 300 302 303 302 303 304 304 305 305 306 304 303 303 304 304 302 299 301 299 297 295 295 296 295 293 292 291 291 291 293 293
297 298 299 301 300 302 304 301 301 305 305 307 307 306 302 299 301 301 301 301 302 304 305 303 302 302 302 301 302 303 302 301 301 300 299 297 296 295 293 291 290 290 289 289
297 299 301 300 300 299 300 300 302 303 304 304 301 302 299 297 298 298 299 300 300 302 304 304 302 300 301 300 301 301 299 298 298 298 298 297 297 295 294 293 293 291 290 290
Wind_Speed
2 4 7 16 6 3 5 4 4 5 4 4 8 10 17 20 19 28 35 38 38 37 35 32 30 32 35 36 36 36 35 34 33 32 31 31 31 32 34 34 32 32 32 33
4 7 12 6 6 5 4 3 5 6 3 6 8 13 13 21 20 30 35 40 45 42 38 36 36 34 36 39 39 38 37 35 34 34 33 32 31 31 31 33 32 32 29 34
8 5 3 8 5 6 5 6 5 8 3 3 5 8 8 8 16 30 40 45 45 46 45 41 37 35 37 39 40 40 39 37 36 35 34 32 30 31 33 33 34 35 30 30
7 4 6 4 4 7 6 9 5 2 2 5 1 8 5 7 10 8 33 36 38 36 35 33 29 28 32 36 40 42 41 38 37 35 35 34 35 36 37 36 38 37 31 28
8 9 6 6 8 8 5 6 6 3 3 4 2 1 6 1 7 17 19 28 22 21 18 17 17 17 19 24 32 39 41 40 39 35 34 33 33 33 32 33 34 32 33 31
3 1 6 7 2 5 7 5 5 4 2 5 9 8 4 5 9 6 12 16 4 3 3 4 3 6 11 17 24 33 39 41 39 36 34 33 33 33 32 35 35 36 35 36
2 5 3 4 6 3 3 6 2 3 1 8 3 3 7 7 8 8 10 8 5 4 11 12 9 8 10 14 18 26 35 40 39 36 34 33 32 28 30 34 36 37 37 37
9 8 11 8 12 8 9 8 6 7 4 5 1 8 6 9 19 29 22 20 17 12 9 9 8 7 8 10 15 20 28 37 36 34 33 32 30 30 32 34 37 36 38 36
6 7 1 3 2 10 7 7 5 2 2 2 5 8 7 10 11 12 10 7 8 8 7 2 2 3 5 7 11 15 22 31 32 32 31 30 29 31 32 34 37 39 38 37
5 4 0 1 3 2 5 7 3 2 3 5 5 6 7 6 9 7 5 9 7 6 7 7 8 8 6 5 6 12 18 24 26 30 30 29 29 30 30 31 35 39 39 38
4 4 1 3 6 10 4 5 2 4 4 5 2 8 8 9 8 7 7 13 9 10 8 8 9 7 6 5 4 9 15 19 25 28 28 28 29 31 31 35 36 37 37 41
7 2 11 9 3 2 1 4 6 5 5 4 2 15 4 5 2 10 10 10 12 10 7 5 4 3 4 5 8 9 15 21 24 27 28 27 28 31 32 34 35 37 38 41
7 4 2 2 1 0 5 5 13 3 3 9 6 13 1 3 2 5 6 10 14 9 6 2 3 6 3 7 9 11 16 21 26 29 29 30 32 32 33 34 35 37 38 41
12 6 7 9 3 5 6 8 13 18 7 10 16 24 6 4 5 7 14 13 14 14 13 14 17 15 9 11 17 16 18 23 27 31 32 31 33 33 33 32 33 36 38 40
2 3 5 14 4 2 5 7 14 19 27 13 31 16 30 13 8 18 14 15 18 22 22 24 26 20 16 19 21 22 23 26 28 32 35 34 33 35 36 34 34 34 37 40
6 5 4 4 10 7 9 8 11 18 24 20 29 24 21 12 23 11 27 29 24 24 25 28 26 23 25 27 28 29 29 29 31 33 35 35 34 36 38 36 36 36 38 40
6 4 4 15 8 10 10 25 15 11 14 19 22 33 24 7 8 15 27 29 29 31 32 32 29 29 32 32 31 29 28 29 32 34 35 36 37 38 38 37 36 37 38 39
6 11 6 10 1 16 11 6 21 23 26 20 22 28 21 10 19 25 35 27 28 33 32 34 34 30 25 23 24 25 26 27 29 32 35 35 37 39 38 38 36 37 39 40
16 11 8 7 12 7 7 6 9 11 22 21 23 26 34 36 11 34 33 30 30 28 24 18 17 18 19 19 19 19 22 22 24 27 30 32 35 37 36 37 35 38 38 40
12 16 11 8 8 9 6 3 2 4 13 16 21 25 25 18 7 17 9 11 12 14 13 14 14 13 13 15 15 15 17 18 18 20 22 24 28 31 33 34 35 37 36 34
3 4 16 16 14 9 8 7 9 8 10 4 26 32 27 9 12 10 8 9 9 10 8 8 8 8 9 9 8 7 8 10 11 11 12 16 20 23 26 29 30 29 29 30
6 6 7 7 10 16 5 1 8 9 9 7 8 16 20 15 15 16 16 14 12 9 7 6 6 6 5 3 4 5 6 6 7 7 8 10 13 17 20 23 24 24 21 23
4 4 2 5 2 4 9 13 19 19 19 19 19 13 14 10 10 10 11 11 9 8 6 5 5 5 7 10 11 8 10 9 9 8 8 8 8 9 13 16 18 20 22 26
8 17 7 4 10 16 28 28 32 25 17 27 19 18 14 12 9 8 10 10 9 10 9 9 9 10 10 10 10 10 9 9 9 10 12 12 13 14 15 17 18 23 22 24
4 2 4 8 5 10 8 24 31 29 23 26 31 26 22 22 14 9 9 9 9 8 9 8 8 8 9 10 11 11 10 11 12 11 10 9 9 10 13 14 16 18 20 21
8 6 4 3 10 16 25 31 22 20 20 20 20 21 22 19 15 11 10 8 8 8 8 10 11 11 11 12 14 11 13 11 10 11 10 10 10 11 12 13 16 17 17 18
Wind_Direction
109 109 191 218 185 132 137 182 231 251 248 193 233 247 267 269 263 262 266 266 262 261 264 261 253 245 242 239 238 237 238 238 238 235 232 231 229 225 224 222 225 230 231 236
49 224 228 103 165 172 159 178 249 275 249 187 273 255 254 262 253 253 258 262 264 265 263 258 253 249 243 241 240 239 239 238 238 237 237 235 231 226 228 220 223 229 231 226
180 205 144 157 154 160 211 192 214 229 327 247 311 276 241 279 252 260 261 262 263 263 266 265 261 256 250 243 241 240 240 238 237 236 234 231 227 226 220 226 220 223 229 230
230 209 154 165 191 164 238 206 187 197 76 252 203 287 263 250 253 254 262 262 263 268 270 272 271 263 256 251 242 239 238 238 237 236 232 231 232 230 228 220 219 226 231 226
231 171 174 183 196 167 232 134 167 160 186 343 204 219 267 34 258 256 265 270 285 285 277 271 270 266 259 249 245 241 238 237 236 235 232 231 232 231 233 230 225 220 221 220
233 174 169 197 118 160 141 84 56 52 90 271 198 194 226 189 214 264 265 282 331 34 348 306 279 255 248 242 238 238 236 236 236 232 231 231 236 230 223 223 218 214 213 216
126 211 187 158 88 37 146 111 294 316 357 244 17 240 259 270 237 229 248 272 285 333 308 296 284 270 259 254 244 236 232 233 233 229 228 229 233 229 227 228 219 219 223 216
193 260 168 191 197 172 197 165 174 213 215 275 26 241 241 234 254 254 268 264 283 302 294 296 293 280 265 257 250 243 234 231 231 230 229 229 231 226 223 227 225 227 222 223
173 263 242 155 141 157 189 203 192 52 89 1 226 285 285 270 276 269 260 265 263 276 298 293 293 324 305 276 260 251 240 233 232 231 230 229 227 222 226 234 231 225 225 220
209 273 163 186 122 11 168 168 86 326 203 253 262 271 229 248 248 256 222 236 233 147 122 99 84 64 41 358 279 250 243 237 233 232 232 231 228 225 225 228 226 228 222 219
151 146 185 105 213 173 151 205 170 138 157 186 293 261 215 223 210 191 191 163 160 141 140 125 111 96 90 39 313 266 247 234 228 234 234 232 229 227 228 231 237 232 224 222
203 174 235 203 206 236 344 237 162 146 217 242 168 264 167 214 145 165 169 185 166 152 146 133 131 159 145 57 358 289 257 242 234 235 235 232 228 225 228 230 237 230 232 223
175 194 184 266 103 283 207 201 211 118 96 213 162 261 323 345 41 213 177 188 185 196 201 194 286 281 253 334 320 296 265 251 239 236 236 231 226 224 225 230 233 234 233 225
140 169 212 235 206 143 188 192 204 209 219 228 232 245 231 182 244 246 231 218 219 244 266 281 296 295 272 294 300 287 265 255 245 239 238 236 230 228 227 235 234 238 231 225
352 225 224 251 331 315 197 202 211 209 226 213 252 240 252 232 220 230 238 254 255 258 264 279 285 285 270 276 283 285 269 252 245 240 239 239 233 229 229 232 236 235 231 225
166 249 198 250 269 241 251 241 219 222 237 237 253 259 255 227 232 248 260 261 264 269 274 274 275 276 274 277 280 283 272 254 248 241 238 239 236 232 232 234 234 235 233 226
180 185 201 260 233 246 247 234 231 228 235 224 242 246 261 231 207 235 255 256 262 271 273 276 282 285 284 279 278 270 268 259 249 246 241 237 235 233 232 234 238 236 234 229
226 209 203 246 162 248 244 178 214 221 235 220 245 256 259 237 251 256 259 263 268 273 277 280 281 279 276 274 268 262 257 254 249 245 241 237 236 235 232 232 236 237 234 229
217 225 245 248 246 271 273 204 160 182 250 231 229 252 263 263 245 267 266 270 275 273 274 273 269 273 275 274 266 256 252 251 246 244 242 239 235 235 233 234 236 237 234 228
219 222 224 226 240 245 239 290 17 101 244 238 217 239 250 252 240 263 246 247 238 248 261 269 273 280 283 272 261 253 242 244 241 242 243 240 238 237 238 237 237 237 233 228
162 209 235 238 250 250 259 154 152 198 248 185 204 226 242 226 234 264 234 230 251 260 259 269 280 290 284 274 262 246 236 238 244 239 238 236 234 235 236 237 238 236 232 222
231 206 216 224 242 252 21 10 192 328 308 279 244 251 248 252 244 245 249 257 254 255 260 258 257 253 239 208 189 170 160 172 186 202 214 218 222 224 228 232 233 235 229 219
227 250 248 231 234 241 282 253 300 298 309 316 305 263 247 230 246 243 243 240 244 245 243 243 228 210 171 142 128 129 132 141 148 159 171 177 192 212 226 230 229 219 221 214
260 246 248 258 232 247 282 296 286 264 259 291 289 296 281 257 251 243 251 245 247 248 229 214 193 170 160 149 149 138 139 146 150 164 163 166 175 187 198 205 209 220 229 224
218 82 229 260 309 329 300 321 316 306 281 261 264 266 268 272 259 247 236 235 227 231 216 208 198 181 174 159 150 147 148 139 138 143 144 154 168 183 195 207 222 223 228 233
180 202 238 256 259 273 272 290 294 297 283 285 262 265 269 263 252 235 240 242 234 222 207 201 197 187 181 172 162 156 148 153 157 149 148 160 171 183 195 204 212 217 220 229